Extreme high temperature From: 16-07-2018 05:00 Until: 19:00 warning for: Extreme high temperature Level: Yellow info button
suomi:
Hellevaroitus: Lähivuorokauden aikana on odotettavissa tukalaa hellettä.

svenska:
Varning för värmebölja: Under det närmaste dygnet är den svåra hettan att vänta.

english:
Heat wave warning: Warm weather is expected during the coming 24 hours. 


Thunder radar more information blitzortung!


Löydät sääaseman tiedot myös:

European Weather Network

Finland Weather Exchange

Weather Underground

AWEKAS



Weather Underground säähistoriasivu

Päivittäin yhteenveto Joulukuu 1, 2017 Yksiköt:  Metriset    Englantilaiset   Molemmat
« Edellinen Päivä
Seuraava Päivä »
Päivittäin Viikoittain Kuukausittain Vuosittain Mukautettu
  Korkea: Matala: Keskiarvo:
Lämpötila: -17.8 °C -18.7 °C -17.9 °C
Kastepiste: -17.8 °C -19.2 °C -18.2 °C
Kosteus: Humidity % 93 % 95 %
Tuulen nopeus: 0 km/h 0 km/h 0.3 km/h
Tuulenpuuska: 0 km/h - -
Tuuli:- - WNW
Ilmanpaine: 0 hPa 34097 hPa -
Sade: 0 mm    
Historical Graphs
 
 
Taulukkotiedot Joulukuu 1, 2017
Aika Lämpötila Kastepiste Ilmanpaine Tuuli Tuulen nopeus Tuulenpuuska Kosteus Sademäärä (tunneittain)
-17.8 °C -17.8 °C 0 hPa Calm     Humidity % 0 mm
00:00 -17.2 °C -17.4 °C 34361.1 hPa Calm     98 % 0 mm
00:15 -17.3 °C -17.4 °C 34361.1 hPa Calm     98 % 0 mm
01:15 -17.3 °C -17.4 °C 34361.1 hPa Calm     98 % 0 mm
01:30 -17.3 °C -17.4 °C 34361.1 hPa Calm     98 % 0 mm
01:45 -17.3 °C -17.4 °C 34361.1 hPa Calm     98 % 0 mm
02:00 -17.3 °C -17.4 °C 34361.1 hPa Calm     98 % 0 mm
02:15 -17.3 °C -17.4 °C 34361.1 hPa Calm     98 % 0 mm
02:30 -17.3 °C -17.5 °C 34361.1 hPa Calm     98 % 0 mm
03:00 -17.4 °C -17.6 °C 34371.3 hPa Calm   7.7 km/h 98 % 0 mm
03:30 -17.5 °C -17.7 °C 34371.3 hPa Calm     98 % 0 mm
04:15 -17.6 °C -17.7 °C 34371.3 hPa Calm     98 % 0 mm
05:00 -17.7 °C -17.8 °C 34371.3 hPa Calm   7.7 km/h 98 % 0 mm
05:15 -17.7 °C -17.9 °C 34371.3 hPa Calm     98 % 0 mm
05:30 -17.7 °C -17.9 °C 34371.3 hPa Calm     98 % 0 mm
05:45 -17.7 °C -17.9 °C 34361.1 hPa Calm     98 % 0 mm
06:00 -17.7 °C -17.9 °C 34361.1 hPa Calm     98 % 0 mm
06:30 -17.7 °C -17.9 °C 34347.6 hPa Calm     98 % 0 mm
06:45 -17.7 °C -17.9 °C 34347.6 hPa Calm     98 % 0 mm
07:00 -17.7 °C -17.9 °C 34347.6 hPa Calm   5.1 km/h 98 % 0 mm
07:15 -17.7 °C -17.9 °C 34337.4 hPa Calm     98 % 0 mm
07:30 -17.7 °C -17.9 °C 34347.6 hPa Calm     98 % 0 mm
07:45 -17.8 °C -17.9 °C 34347.6 hPa Calm     98 % 0 mm
08:00 -17.8 °C -17.9 °C 34347.6 hPa Calm     98 % 0 mm
08:15 -17.8 °C -17.9 °C 34347.6 hPa Calm     98 % 0 mm
08:30 -17.8 °C -17.9 °C 34347.6 hPa Calm     98 % 0 mm
08:45 -17.8 °C -18 °C 34337.4 hPa Calm   2.6 km/h 98 % 0 mm
09:00 -17.9 °C -18 °C 34337.4 hPa Calm     98 % 0 mm
09:15 -17.9 °C -18 °C 34337.4 hPa Calm     98 % 0 mm
09:30 -17.9 °C -18 °C 34337.4 hPa Calm     98 % 0 mm
10:00 -17.8 °C -17.9 °C 34327.3 hPa Calm     98 % 0 mm
10:15 -17.8 °C -17.9 °C 34313.7 hPa Calm     98 % 0 mm
10:30 -17.8 °C -17.9 °C 34327.3 hPa Calm     98 % 0 mm
10:45 -17.8 °C -17.9 °C 34313.7 hPa Calm     98 % 0 mm
11:00 -17.8 °C -17.9 °C 34313.7 hPa Calm     98 % 0 mm
11:15 -17.8 °C -17.9 °C 34303.6 hPa Calm   2.6 km/h 98 % 0 mm
11:30 -17.7 °C -17.9 °C 34303.6 hPa Calm   5.1 km/h 98 % 0 mm
12:00 -17.7 °C -17.9 °C 34279.9 hPa Calm   5.1 km/h 98 % 0 mm
12:15 -17.7 °C -17.9 °C 34279.9 hPa Calm     98 % 0 mm
12:30 -17.7 °C -17.9 °C 34269.7 hPa Calm   5.1 km/h 97 % 0 mm
12:45 -17.7 °C -17.9 °C 34269.7 hPa Calm   2.6 km/h 97 % 0 mm
13:00 -17.7 °C -17.9 °C 34269.7 hPa Calm   7.7 km/h 97 % 0 mm
13:30 -17.7 °C -18 °C 34246 hPa Calm   2.6 km/h 97 % 0 mm
13:45 -17.7 °C -18 °C 34246 hPa Calm   7.7 km/h 97 % 0 mm
14:00 -17.8 °C -18 °C 34235.8 hPa Calm   7.7 km/h 97 % 0 mm
14:30 -17.9 °C -18.1 °C 34222.3 hPa ENE 2.6 km/h 7.7 km/h 97 % 0 mm
14:45 -17.9 °C -18.2 °C 34222.3 hPa Calm   7.7 km/h 96 % 0 mm
15:00 -17.9 °C -18.2 °C 34222.3 hPa WNW 2.6 km/h 7.7 km/h 96 % 0 mm
15:15 -17.9 °C -18.3 °C 34222.3 hPa Calm   5.1 km/h 96 % 0 mm
15:30 -18 °C -18.4 °C 34212.1 hPa Calm   7.7 km/h 95 % 0 mm
15:45 -18 °C -18.4 °C 34212.1 hPa Calm   5.1 km/h 95 % 0 mm
16:00 -18.1 °C -18.4 °C 34198.6 hPa Calm   7.7 km/h 95 % 0 mm
16:15 -18.1 °C -18.4 °C 34198.6 hPa Calm   7.7 km/h 95 % 0 mm
16:30 -18.1 °C -18.5 °C 34198.6 hPa Calm   7.7 km/h 95 % 0 mm
16:45 -18.2 °C -18.6 °C 34188.4 hPa Calm   5.1 km/h 95 % 0 mm
17:00 -18.2 °C -18.6 °C 34188.4 hPa Calm   7.7 km/h 95 % 0 mm
17:15 -18.3 °C -18.6 °C 34188.4 hPa Calm   2.6 km/h 95 % 0 mm
17:30 -18.3 °C -18.7 °C 34178.3 hPa Calm   2.6 km/h 95 % 0 mm
17:45 -18.3 °C -18.7 °C 34188.4 hPa Calm   2.6 km/h 95 % 0 mm
18:15 -18.4 °C -18.8 °C 34164.7 hPa Calm   5.1 km/h 95 % 0 mm
18:30 -18.4 °C -18.8 °C 34164.7 hPa Calm   7.7 km/h 95 % 0 mm
18:45 -18.4 °C -18.8 °C 34164.7 hPa Calm   7.7 km/h 95 % 0 mm
19:00 -18.4 °C -18.8 °C 34164.7 hPa Calm   2.6 km/h 95 % 0 mm
19:15 -18.5 °C -18.9 °C 34154.6 hPa NW 2.6 km/h 10.3 km/h 95 % 0 mm
19:30 -18.5 °C -18.9 °C 34154.6 hPa NW 2.6 km/h 7.7 km/h 95 % 0 mm
19:45 -18.6 °C -18.9 °C 34154.6 hPa NW 2.6 km/h 12.9 km/h 95 % 0 mm
20:15 -18.6 °C -19 °C 34154.6 hPa North 2.6 km/h 7.7 km/h 94 % 0 mm
20:30 -18.6 °C -19 °C 34144.4 hPa Calm   7.7 km/h 94 % 0 mm
20:45 -18.6 °C -19 °C 34144.4 hPa NNW 2.6 km/h 10.3 km/h 94 % 0 mm
21:00 -18.5 °C -19.1 °C 34144.4 hPa Calm   10.3 km/h 93 % 0 mm
21:30 -18.6 °C -19.1 °C 34130.9 hPa Calm     93 % 0 mm
22:00 -18.6 °C -19.1 °C 34120.7 hPa Calm   7.7 km/h 93 % 0 mm
22:15 -18.6 °C -19.2 °C 34107.2 hPa Calm   7.7 km/h 93 % 0 mm
22:30 -18.6 °C -19.2 °C 34107.2 hPa Calm   2.6 km/h 93 % 0 mm
22:45 -18.6 °C -19.2 °C 34107.2 hPa Calm   2.6 km/h 93 % 0 mm
23:00 -18.7 °C -19.2 °C 34107.2 hPa Calm   7.7 km/h 93 % 0 mm
23:15 -18.7 °C -19.2 °C 34097 hPa Calm   5.1 km/h 93 % 0 mm
23:30 -18.7 °C -19.2 °C 34097 hPa Calm   7.7 km/h 93 % 0 mm
23:45 -18.7 °C -19.2 °C 34097 hPa NW 2.6 km/h 12.9 km/h 93 % 0 mm
Esan sääasema
Terveisin Weather Underground - 2.75 mb

Alkuperäinen skripti  Jim McMurry - jmcmurry@mwt.net Sovitettu myös templatelle  Wim van der Kuil - Leuven-Template.eu

Laitteet joita käytämme:

Sääasema
Davis VP2

Sääasemaohjelma
Cumulus

Sääaseman tietokone
Asus EeePC

Palveluntarjoaja
Suncomet

Davis VP2

Cumulus

Asus EeePC

Suncomet